Location: Byhalia Creek
(34.8270°N, 89.8040°W)
Time: 20:15:15
(UTC+00:00)

ISS - Pass Details

Date: 22 April 2026
Orbit: 414 x 424 km, 51.6° (Epoch: 21 May)

Event Time Altitude Azimuth Distance (km) Brightness Sun altitude
Exits shadow 09:40:56 21° 322° (NW) 1,011 -1.9 -19.2°
Maximum altitude 09:41:09 21° 328° (NNW) 1,007 -1.9 -19.2°
Drops below altitude 10° 09:43:47 10° 19° (NNE) 1,501 -0.3 -18.7°
Sets 09:46:15 0° 36° (NE) 2,371 1.3 -18.3°
